Time,TemperatureF,DewpointF,PressureIn,WindDirection,WindDirectionDegrees,WindSpeedMPH,WindSpeedGustMPH,Humidity,HourlyPrecipIn,Conditions,Clouds,dailyrainin,SoftwareType,DateUTC
2013-06-03 00:02:00,67.9,63.2,29.88,ENE,57,0.0,0.0,85,0.00,RA,,0.00,WeatherDisplay:10.37,2013-06-03 05:02:00,
2013-06-03 00:07:00,67.8,63.1,29.88,ENE,57,0.0,0.0,85,0.00,RA,,0.00,WeatherDisplay:10.37,2013-06-03 05:07:00,
2013-06-03 00:12:00,67.7,63.0,29.89,ENE,57,0.0,0.0,85,0.00,CLR,,0.00,WeatherDisplay:10.37,2013-06-03 05:12:00,
2013-06-03 00:17:00,67.6,62.9,29.89,ENE,57,0.0,0.0,85,0.00,CLR,,0.00,WeatherDisplay:10.37,2013-06-03 05:17:00,
2013-06-03 00:22:00,67.5,62.8,29.90,ENE,57,0.0,0.0,85,0.00,CLR,,0.00,WeatherDisplay:10.37,2013-06-03 05:22:00,
2013-06-03 00:27:00,67.3,62.6,29.90,ENE,57,0.0,0.0,85,0.00,CLR,,0.00,WeatherDisplay:10.37,2013-06-03 05:27:00,
2013-06-03 00:32:00,67.2,62.5,29.90,ENE,57,0.0,0.0,85,0.00,CLR,,0.00,WeatherDisplay:10.37,2013-06-03 05:32:00,
2013-06-03 00:37:00,67.1,62.4,29.90,ENE,57,0.0,0.0,85,0.00,CLR,,0.00,WeatherDisplay:10.37,2013-06-03 05:37:00,
2013-06-03 00:42:00,67.0,62.3,29.90,ENE,57,0.0,0.0,85,0.00,CLR,,0.00,WeatherDisplay:10.37,2013-06-03 05:42:00,
2013-06-03 00:47:00,66.9,62.2,29.90,ENE,57,0.0,0.0,85,0.00,CLR,,0.00,WeatherDisplay:10.37,2013-06-03 05:47:00,
2013-06-03 00:52:00,66.8,62.5,29.91,ENE,57,0.0,0.0,86,0.00,CLR,,0.00,WeatherDisplay:10.37,2013-06-03 05:52:00,
2013-06-03 00:57:00,66.7,62.4,29.91,ENE,57,0.0,0.0,86,0.00,CLR,,0.00,WeatherDisplay:10.37,2013-06-03 05:57:00,
2013-06-03 01:03:00,66.6,62.6,29.91,ENE,57,0.0,0.0,87,0.00,CLR,,0.00,WeatherDisplay:10.37,2013-06-03 06:03:00,
2013-06-03 01:08:00,66.5,62.5,29.90,ENE,57,0.0,0.0,87,0.00,CLR,,0.00,WeatherDisplay:10.37,2013-06-03 06:08:00,
2013-06-03 01:13:00,66.3,62.3,29.91,ENE,57,0.0,0.0,87,0.00,CLR,,0.00,WeatherDisplay:10.37,2013-06-03 06:13:00,
2013-06-03 01:18:00,66.2,62.2,29.91,ENE,57,0.0,0.0,87,0.00,CLR,,0.00,WeatherDisplay:10.37,2013-06-03 06:18:00,
2013-06-03 01:23:00,66.1,62.1,29.91,ENE,57,0.0,0.0,87,0.00,CLR,,0.00,WeatherDisplay:10.37,2013-06-03 06:23:00,
2013-06-03 01:28:00,66.0,62.3,29.91,ENE,57,0.0,0.0,88,0.00,CLR,,0.00,WeatherDisplay:10.37,2013-06-03 06:28:00,
2013-06-03 01:33:00,65.9,62.2,29.90,ENE,57,0.0,0.0,88,0.00,CLR,,0.00,WeatherDisplay:10.37,2013-06-03 06:33:00,
2013-06-03 01:38:00,65.9,62.2,29.90,ENE,57,0.0,0.0,88,0.00,CLR,,0.00,WeatherDisplay:10.37,2013-06-03 06:38:00,
2013-06-03 01:43:00,65.8,62.1,29.90,ENE,57,0.0,0.0,88,0.00,CLR,,0.00,WeatherDisplay:10.37,2013-06-03 06:43:00,
2013-06-03 01:48:00,65.7,62.0,29.90,ENE,57,0.0,0.0,88,0.00,CLR,,0.00,WeatherDisplay:10.37,2013-06-03 06:48:00,
2013-06-03 01:53:00,65.7,62.0,29.90,ENE,57,0.0,0.0,88,0.00,CLR,,0.00,WeatherDisplay:10.37,2013-06-03 06:53:00,
2013-06-03 01:58:00,65.6,61.9,29.90,ENE,57,0.0,0.0,88,0.00,CLR,,0.00,WeatherDisplay:10.37,2013-06-03 06:58:00,
2013-06-03 02:03:00,65.6,62.3,29.90,ENE,57,0.0,0.0,89,0.00,CLR,,0.00,WeatherDisplay:10.37,2013-06-03 07:03:00,
2013-06-03 02:08:00,65.5,62.2,29.90,ENE,57,0.0,0.0,89,0.00,CLR,,0.00,WeatherDisplay:10.37,2013-06-03 07:08:00,
2013-06-03 02:13:00,65.5,62.2,29.90,ENE,57,0.0,0.0,89,0.00,CLR,,0.00,WeatherDisplay:10.37,2013-06-03 07:13:00,
2013-06-03 02:18:00,65.5,62.2,29.90,ENE,57,0.0,0.0,89,0.00,CLR,,0.00,WeatherDisplay:10.37,2013-06-03 07:18:00,
2013-06-03 02:23:00,65.4,62.1,29.90,ENE,57,0.0,0.0,89,0.00,CLR,,0.00,WeatherDisplay:10.37,2013-06-03 07:23:00,
2013-06-03 02:28:00,65.4,62.1,29.90,ENE,57,0.0,0.0,89,0.00,CLR,,0.00,WeatherDisplay:10.37,2013-06-03 07:28:00,
2013-06-03 02:33:00,65.3,62.0,29.90,ENE,57,0.0,0.0,89,0.00,CLR,,0.00,WeatherDisplay:10.37,2013-06-03 07:33:00,
2013-06-03 02:38:00,65.3,62.0,29.89,ENE,57,0.0,0.0,89,0.00,CLR,,0.00,WeatherDisplay:10.37,2013-06-03 07:38:00,
2013-06-03 02:43:00,65.2,61.9,29.89,ENE,57,0.0,0.0,89,0.00,CLR,,0.00,WeatherDisplay:10.37,2013-06-03 07:43:00,
2013-06-03 02:48:00,65.1,61.8,29.89,ENE,57,0.0,0.0,89,0.00,CLR,,0.00,WeatherDisplay:10.37,2013-06-03 07:48:00,
2013-06-03 02:53:00,65.0,61.7,29.89,ENE,57,0.0,0.0,89,0.00,CLR,,0.00,WeatherDisplay:10.37,2013-06-03 07:53:00,
2013-06-03 02:58:00,65.0,61.7,29.89,ENE,57,0.0,0.0,89,0.00,CLR,,0.00,WeatherDisplay:10.37,2013-06-03 07:58:00,
2013-06-03 03:03:00,64.9,61.6,29.89,ENE,57,0.0,0.0,89,0.00,CLR,,0.00,WeatherDisplay:10.37,2013-06-03 08:03:00,
2013-06-03 03:08:00,64.8,61.8,29.89,ENE,57,0.0,0.0,90,0.00,CLR,,0.00,WeatherDisplay:10.37,2013-06-03 08:08:00,
2013-06-03 03:13:00,64.7,61.7,29.89,ENE,57,0.0,0.0,90,0.00,CLR,,0.00,WeatherDisplay:10.37,2013-06-03 08:13:00,
2013-06-03 03:18:00,64.7,61.7,29.89,ENE,57,0.0,0.0,90,0.00,CLR,,0.00,WeatherDisplay:10.37,2013-06-03 08:18:00,
2013-06-03 03:23:00,64.6,61.6,29.89,ENE,57,0.0,0.0,90,0.00,CLR,,0.00,WeatherDisplay:10.37,2013-06-03 08:23:00,
2013-06-03 03:28:00,64.5,61.5,29.89,ENE,57,0.0,0.0,90,0.00,CLR,,0.00,WeatherDisplay:10.37,2013-06-03 08:28:00,
2013-06-03 03:33:00,64.4,61.4,29.89,ENE,57,0.0,0.0,90,0.00,CLR,,0.00,WeatherDisplay:10.37,2013-06-03 08:33:00,
2013-06-03 03:38:00,64.3,61.0,29.89,ENE,57,0.0,0.0,89,0.00,CLR,,0.00,WeatherDisplay:10.37,2013-06-03 08:38:00,
2013-06-03 03:43:00,64.2,61.2,29.89,ENE,57,0.0,0.0,90,0.00,CLR,,0.00,WeatherDisplay:10.37,2013-06-03 08:43:00,
2013-06-03 03:48:00,64.1,61.1,29.89,ENE,57,0.0,0.0,90,0.00,CLR,,0.00,WeatherDisplay:10.37,2013-06-03 08:48:00,
2013-06-03 03:53:00,64.0,61.0,29.89,ENE,57,0.0,0.0,90,0.00,CLR,,0.00,WeatherDisplay:10.37,2013-06-03 08:53:00,
2013-06-03 03:58:00,63.9,60.9,29.89,ENE,57,0.0,0.0,90,0.00,CLR,,0.00,WeatherDisplay:10.37,2013-06-03 08:58:00,
2013-06-03 04:03:00,63.8,60.8,29.89,ENE,57,0.0,0.0,90,0.00,CLR,,0.00,WeatherDisplay:10.37,2013-06-03 09:03:00,
2013-06-03 04:08:00,63.8,60.8,29.89,ENE,57,0.0,0.0,90,0.00,CLR,,0.00,WeatherDisplay:10.37,2013-06-03 09:08:00,
2013-06-03 04:13:00,63.7,60.7,29.89,ENE,57,0.0,0.0,90,0.00,CLR,,0.00,WeatherDisplay:10.37,2013-06-03 09:13:00,
2013-06-03 04:18:00,63.6,60.6,29.89,ENE,57,0.0,0.0,90,0.00,CLR,,0.00,WeatherDisplay:10.37,2013-06-03 09:18:00,
2013-06-03 04:23:00,63.5,60.5,29.89,ENE,57,0.0,0.0,90,0.00,CLR,,0.00,WeatherDisplay:10.37,2013-06-03 09:23:00,
2013-06-03 04:28:00,63.4,60.4,29.89,ENE,57,0.0,0.0,90,0.00,CLR,,0.00,WeatherDisplay:10.37,2013-06-03 09:28:00,
2013-06-03 04:33:00,63.3,60.3,29.89,ENE,57,0.0,0.0,90,0.00,CLR,,0.00,WeatherDisplay:10.37,2013-06-03 09:33:00,
2013-06-03 04:38:00,63.3,60.3,29.90,ENE,57,0.0,0.0,90,0.00,CLR,,0.00,WeatherDisplay:10.37,2013-06-03 09:38:00,
2013-06-03 04:43:00,63.2,60.2,29.90,ENE,57,0.0,0.0,90,0.00,CLR,,0.00,WeatherDisplay:10.37,2013-06-03 09:43:00,
2013-06-03 04:48:00,63.1,60.1,29.89,ENE,57,0.0,0.0,90,0.00,CLR,,0.00,WeatherDisplay:10.37,2013-06-03 09:48:00,
2013-06-03 04:53:00,63.0,60.0,29.90,ENE,57,0.0,0.0,90,0.00,CLR,,0.00,WeatherDisplay:10.37,2013-06-03 09:53:00,
2013-06-03 04:58:00,62.9,60.2,29.90,ENE,57,0.0,0.0,91,0.00,CLR,,0.00,WeatherDisplay:10.37,2013-06-03 09:58:00,
2013-06-03 05:03:00,62.9,60.2,29.90,ENE,57,0.0,0.0,91,0.00,CLR,,0.00,WeatherDisplay:10.37,2013-06-03 10:03:00,
2013-06-03 05:08:00,62.7,60.0,29.90,ENE,57,0.0,0.0,91,0.00,CLR,,0.00,WeatherDisplay:10.37,2013-06-03 10:08:00,
2013-06-03 05:13:00,62.6,59.9,29.90,ENE,57,0.0,0.0,91,0.00,CLR,,0.00,WeatherDisplay:10.37,2013-06-03 10:13:00,
2013-06-03 05:18:00,62.6,59.9,29.90,ENE,57,0.0,0.0,91,0.00,CLR,,0.00,WeatherDisplay:10.37,2013-06-03 10:18:00,
2013-06-03 05:23:00,62.5,59.8,29.90,ENE,57,0.0,0.0,91,0.00,CLR,,0.00,WeatherDisplay:10.37,2013-06-03 10:23:00,
2013-06-03 05:28:00,62.4,59.7,29.90,ENE,57,0.0,0.0,91,0.00,CLR,,0.00,WeatherDisplay:10.37,2013-06-03 10:28:00,
2013-06-03 05:33:00,62.4,59.7,29.91,ENE,57,0.0,0.0,91,0.00,CLR,,0.00,WeatherDisplay:10.37,2013-06-03 10:33:00,
2013-06-03 05:38:00,62.5,60.1,29.91,ENE,57,0.0,0.0,92,0.00,CLR,,0.00,WeatherDisplay:10.37,2013-06-03 10:38:00,
2013-06-03 05:43:00,62.5,60.1,29.91,ENE,57,0.0,0.0,92,0.00,CLR,,0.00,WeatherDisplay:10.37,2013-06-03 10:43:00,
2013-06-03 05:48:00,62.5,60.1,29.91,ENE,57,0.0,0.0,92,0.00,CLR,,0.00,WeatherDisplay:10.37,2013-06-03 10:48:00,
2013-06-03 05:53:00,62.5,60.1,29.91,ENE,57,0.0,0.0,92,0.00,CLR,,0.00,WeatherDisplay:10.37,2013-06-03 10:53:00,
2013-06-03 05:58:00,62.5,60.1,29.91,ENE,57,0.0,0.0,92,0.00,CLR,,0.00,WeatherDisplay:10.37,2013-06-03 10:58:00,
2013-06-03 06:03:00,62.5,60.1,29.91,ENE,57,0.0,0.0,92,0.00,CLR,,0.00,WeatherDisplay:10.37,2013-06-03 11:03:00,
2013-06-03 06:08:00,62.4,60.0,29.91,ENE,57,0.0,0.0,92,0.00,CLR,,0.00,WeatherDisplay:10.37,2013-06-03 11:08:00,
2013-06-03 06:13:00,62.4,60.0,29.91,ENE,57,0.0,0.0,92,0.00,CLR,,0.00,WeatherDisplay:10.37,2013-06-03 11:13:00,
2013-06-03 06:18:00,62.3,60.2,29.91,ENE,57,0.0,0.0,93,0.00,CLR,,0.00,WeatherDisplay:10.37,2013-06-03 11:18:00,
2013-06-03 06:23:00,62.3,60.2,29.91,ENE,57,0.0,0.0,93,0.00,CLR,,0.00,WeatherDisplay:10.37,2013-06-03 11:23:00,
2013-06-03 06:28:00,62.3,59.9,29.91,ENE,57,0.0,0.0,92,0.00,CLR,,0.00,WeatherDisplay:10.37,2013-06-03 11:28:00,
2013-06-03 06:33:00,62.3,60.2,29.91,ENE,57,0.0,0.0,93,0.00,CLR,,0.00,WeatherDisplay:10.37,2013-06-03 11:33:00,
2013-06-03 06:38:00,62.3,60.2,29.91,ENE,57,0.0,0.0,93,0.00,CLR,,0.00,WeatherDisplay:10.37,2013-06-03 11:38:00,
2013-06-03 06:43:00,62.4,60.3,29.91,ENE,57,0.0,0.0,93,0.00,CLR,,0.00,WeatherDisplay:10.37,2013-06-03 11:43:00,
2013-06-03 06:48:00,62.4,60.3,29.92,ENE,57,0.0,0.0,93,0.00,CLR,,0.00,WeatherDisplay:10.37,2013-06-03 11:48:00,
2013-06-03 06:53:00,62.4,60.3,29.92,ENE,57,0.0,0.0,93,0.00,CLR,,0.00,WeatherDisplay:10.37,2013-06-03 11:53:00,
2013-06-03 06:58:00,62.5,60.4,29.92,ENE,57,0.0,0.0,93,0.00,CLR,,0.00,WeatherDisplay:10.37,2013-06-03 11:58:00,
2013-06-03 07:03:00,62.6,60.5,29.92,ENE,57,0.0,0.0,93,0.00,CLR,,0.00,WeatherDisplay:10.37,2013-06-03 12:03:00,
2013-06-03 07:08:00,62.6,60.5,29.92,ENE,57,0.0,0.0,93,0.00,CLR,,0.00,WeatherDisplay:10.37,2013-06-03 12:08:00,
2013-06-03 07:13:00,62.6,60.5,29.92,ENE,57,0.0,0.0,93,0.00,CLR,,0.00,WeatherDisplay:10.37,2013-06-03 12:13:00,
2013-06-03 07:18:00,62.8,61.0,29.92,ENE,57,0.0,0.0,94,0.00,CLR,,0.00,WeatherDisplay:10.37,2013-06-03 12:18:00,
2013-06-03 07:23:00,63.0,60.9,29.91,ENE,57,0.0,0.0,93,0.00,CLR,,0.00,WeatherDisplay:10.37,2013-06-03 12:23:00,
2013-06-03 07:28:00,63.1,61.3,29.91,ENE,57,0.0,0.0,94,0.00,CLR,,0.00,WeatherDisplay:10.37,2013-06-03 12:28:00,
2013-06-03 07:33:00,63.2,61.4,29.91,ENE,57,0.0,0.0,94,0.00,CLR,,0.00,WeatherDisplay:10.37,2013-06-03 12:33:00,
2013-06-03 07:38:00,63.4,61.6,29.91,ENE,57,0.0,0.0,94,0.00,CLR,,0.00,WeatherDisplay:10.37,2013-06-03 12:38:00,
2013-06-03 07:43:00,63.5,61.7,29.91,ENE,57,0.0,0.0,94,0.00,CLR,,0.00,WeatherDisplay:10.37,2013-06-03 12:43:00,
2013-06-03 07:48:00,63.8,62.0,29.91,ENE,57,0.0,0.0,94,0.00,CLR,,0.00,WeatherDisplay:10.37,2013-06-03 12:48:00,
2013-06-03 07:53:00,64.0,62.2,29.91,ENE,57,0.0,0.0,94,0.00,CLR,,0.00,WeatherDisplay:10.37,2013-06-03 12:53:00,
2013-06-03 07:58:00,64.2,62.4,29.91,ENE,57,0.0,0.0,94,0.00,CLR,,0.00,WeatherDisplay:10.37,2013-06-03 12:58:00,
2013-06-03 08:03:00,64.4,62.6,29.91,ENE,57,0.0,0.0,94,0.00,CLR,,0.00,WeatherDisplay:10.37,2013-06-03 13:03:00,
2013-06-03 08:08:00,64.8,63.3,29.91,ENE,57,0.0,0.0,95,0.00,CLR,,0.00,WeatherDisplay:10.37,2013-06-03 13:08:00,
2013-06-03 08:13:00,65.0,63.5,29.91,ENE,57,0.0,0.0,95,0.00,CLR,,0.00,WeatherDisplay:10.37,2013-06-03 13:13:00,
2013-06-03 08:18:00,65.2,63.4,29.91,ENE,57,0.0,0.0,94,0.00,CLR,,0.00,WeatherDisplay:10.37,2013-06-03 13:18:00,
2013-06-03 08:23:00,65.3,63.5,29.91,ENE,57,0.0,0.0,94,0.00,CLR,,0.00,WeatherDisplay:10.37,2013-06-03 13:23:00,
2013-06-03 08:28:00,65.6,64.1,29.91,ENE,57,0.0,0.0,95,0.00,CLR,,0.00,WeatherDisplay:10.37,2013-06-03 13:28:00,
2013-06-03 08:33:00,66.0,64.5,29.91,ENE,57,0.0,0.0,95,0.00,CLR,,0.00,WeatherDisplay:10.37,2013-06-03 13:33:00,
2013-06-03 08:38:00,66.5,65.0,29.91,ENE,57,0.0,0.0,95,0.00,CLR,,0.00,WeatherDisplay:10.37,2013-06-03 13:38:00,
2013-06-03 08:43:00,67.3,65.8,29.91,ENE,57,0.0,0.0,95,0.00,CLR,,0.00,WeatherDisplay:10.37,2013-06-03 13:43:00,
2013-06-03 08:48:00,68.1,66.6,29.91,ENE,57,0.0,0.0,95,0.00,CLR,,0.00,WeatherDisplay:10.37,2013-06-03 13:48:00,
2013-06-03 08:53:00,69.2,67.7,29.92,ENE,57,0.0,0.0,95,0.00,CLR,,0.00,WeatherDisplay:10.37,2013-06-03 13:53:00,
2013-06-03 08:58:00,70.1,68.6,29.92,ENE,58,0.0,1.2,95,0.00,CLR,,0.00,WeatherDisplay:10.37,2013-06-03 13:58:00,
2013-06-03 09:03:00,71.1,69.3,29.92,ENE,58,0.0,1.2,94,0.00,CLR,,0.00,WeatherDisplay:10.37,2013-06-03 14:03:00,
2013-06-03 09:08:00,71.9,69.4,29.92,ENE,58,0.0,0.0,92,0.00,CLR,,0.00,WeatherDisplay:10.37,2013-06-03 14:08:00,
2013-06-03 09:13:00,73.0,70.2,29.92,ENE,58,0.0,0.0,91,0.00,CLR,,0.00,WeatherDisplay:10.37,2013-06-03 14:13:00,
2013-06-03 09:18:00,74.1,70.3,29.92,ENE,58,0.0,1.2,88,0.00,CLR,,0.00,WeatherDisplay:10.37,2013-06-03 14:18:00,
2013-06-03 09:23:00,75.2,71.1,29.92,ENE,58,0.0,0.0,87,0.00,CLR,,0.00,WeatherDisplay:10.37,2013-06-03 14:23:00,
2013-06-03 09:28:00,76.2,71.4,29.92,ENE,58,0.0,0.0,85,0.00,CLR,,0.00,WeatherDisplay:10.37,2013-06-03 14:28:00,
2013-06-03 09:33:00,77.1,71.2,29.92,ENE,58,0.0,0.0,82,0.00,CLR,,0.00,WeatherDisplay:10.37,2013-06-03 14:33:00,
2013-06-03 09:38:00,78.0,71.3,29.92,ENE,58,0.0,0.0,80,0.00,CLR,,0.00,WeatherDisplay:10.37,2013-06-03 14:38:00,
2013-06-03 09:43:00,79.0,71.2,29.92,ENE,58,0.1,1.0,77,0.00,CLR,,0.00,WeatherDisplay:10.37,2013-06-03 14:43:00,
2013-06-03 09:48:00,79.5,71.3,29.92,ENE,58,0.0,0.0,76,0.00,CLR,,0.00,WeatherDisplay:10.37,2013-06-03 14:48:00,
2013-06-03 09:53:00,80.2,71.2,29.92,ENE,58,0.0,0.0,74,0.00,CLR,,0.00,WeatherDisplay:10.37,2013-06-03 14:53:00,
2013-06-03 09:58:00,80.6,71.1,29.92,ENE,58,0.0,0.0,73,0.00,CLR,,0.00,WeatherDisplay:10.37,2013-06-03 14:58:00,
2013-06-03 10:03:00,81.0,71.1,29.92,ENE,58,0.0,0.0,72,0.00,CLR,,0.00,WeatherDisplay:10.37,2013-06-03 15:03:00,
2013-06-03 10:08:00,81.4,70.2,29.92,ENE,69,0.1,1.2,69,0.00,CLR,,0.00,WeatherDisplay:10.37,2013-06-03 15:08:00,
2013-06-03 10:13:00,81.7,69.2,29.92,ENE,67,0.0,0.0,66,0.00,CLR,,0.00,WeatherDisplay:10.37,2013-06-03 15:13:00,
2013-06-03 10:18:00,82.1,69.6,29.92,ENE,59,0.0,0.0,66,0.00,CLR,,0.00,WeatherDisplay:10.37,2013-06-03 15:18:00,
2013-06-03 10:23:00,82.6,69.6,29.92,ENE,74,0.0,0.0,65,0.00,CLR,,0.00,WeatherDisplay:10.37,2013-06-03 15:23:00,
2013-06-03 10:28:00,83.1,70.1,29.91,ENE,77,0.0,0.0,65,0.00,CLR,,0.00,WeatherDisplay:10.37,2013-06-03 15:28:00,
2013-06-03 10:33:00,83.4,70.8,29.91,NE,51,0.0,0.0,66,0.00,CLR,,0.00,WeatherDisplay:10.37,2013-06-03 15:33:00,
2013-06-03 10:38:00,83.6,70.1,29.91,NE,51,0.1,2.3,64,0.00,CLR,,0.00,WeatherDisplay:10.37,2013-06-03 15:38:00,
2013-06-03 10:43:00,83.4,68.5,29.90,SE,124,2.8,3.5,61,0.00,CLR,,0.00,WeatherDisplay:10.37,2013-06-03 15:43:00,
2013-06-03 10:48:00,83.3,68.9,29.91,ENE,60,0.0,0.0,62,0.00,CLR,,0.00,WeatherDisplay:10.37,2013-06-03 15:48:00,
2013-06-03 10:53:00,83.3,69.4,29.90,NE,37,0.0,0.0,63,0.00,CLR,,0.00,WeatherDisplay:10.37,2013-06-03 15:53:00,
2013-06-03 10:58:00,83.7,68.8,29.90,ENE,68,0.1,1.2,61,0.00,CLR,,0.00,WeatherDisplay:10.37,2013-06-03 15:58:00,
2013-06-03 11:03:00,83.9,69.5,29.90,ENE,63,0.2,0.0,62,0.00,CLR,,0.00,WeatherDisplay:10.37,2013-06-03 16:03:00,
2013-06-03 11:08:00,84.6,69.7,29.90,ENE,62,0.0,0.0,61,0.00,CLR,,0.00,WeatherDisplay:10.37,2013-06-03 16:08:00,
2013-06-03 11:13:00,84.8,68.9,29.90,ENE,67,1.4,3.5,59,0.00,CLR,,0.00,WeatherDisplay:10.37,2013-06-03 16:13:00,
2013-06-03 11:18:00,84.4,69.0,29.90,ENE,76,0.3,1.2,60,0.00,CLR,,0.00,WeatherDisplay:10.37,2013-06-03 16:18:00,
2013-06-03 11:23:00,84.1,68.7,29.90,East,88,0.3,2.0,60,0.00,CLR,,0.00,WeatherDisplay:10.37,2013-06-03 16:23:00,
2013-06-03 11:28:00,84.6,68.7,29.90,NNW,345,0.0,0.0,59,0.00,CLR,,0.00,WeatherDisplay:10.37,2013-06-03 16:28:00,
2013-06-03 11:33:00,85.3,68.3,29.90,East,95,0.2,1.2,57,0.00,CLR,,0.00,WeatherDisplay:10.37,2013-06-03 16:33:00,
2013-06-03 11:38:00,85.3,69.3,29.90,ENE,63,0.4,2.3,59,0.00,CLR,,0.00,WeatherDisplay:10.37,2013-06-03 16:38:00,
2013-06-03 11:43:00,85.2,70.2,29.89,NE,46,0.1,0.0,61,0.00,CLR,,0.00,WeatherDisplay:10.37,2013-06-03 16:43:00,
2013-06-03 11:48:00,86.3,69.8,29.89,NE,45,0.0,0.0,58,0.00,CLR,,0.00,WeatherDisplay:10.37,2013-06-03 16:48:00,
2013-06-03 11:53:00,87.5,69.9,29.89,North,10,0.1,1.2,56,0.00,CLR,,0.00,WeatherDisplay:10.37,2013-06-03 16:53:00,
2013-06-03 11:58:00,88.2,69.5,29.89,SW,219,0.0,1.2,54,0.00,CLR,,0.00,WeatherDisplay:10.37,2013-06-03 16:58:00,
2013-06-03 12:03:00,87.7,68.4,29.89,ENE,63,0.5,1.2,53,0.00,CLR,,0.00,WeatherDisplay:10.37,2013-06-03 17:03:00,
2013-06-03 12:08:00,87.8,68.0,29.89,NNE,29,0.7,2.3,52,0.00,CLR,,0.00,WeatherDisplay:10.37,2013-06-03 17:08:00,
2013-06-03 12:13:00,88.7,68.2,29.89,NNW,344,0.0,0.0,51,0.00,CLR,,0.00,WeatherDisplay:10.37,2013-06-03 17:13:00,
2013-06-03 12:18:00,89.0,67.9,29.89,SSW,213,0.0,0.0,50,0.00,CLR,,0.00,WeatherDisplay:10.37,2013-06-03 17:18:00,
2013-06-03 12:23:00,89.4,68.9,29.89,SSW,211,0.0,0.0,51,0.00,CLR,,0.00,WeatherDisplay:10.37,2013-06-03 17:23:00,
2013-06-03 12:28:00,90.3,68.5,29.88,SSW,211,0.0,1.2,49,0.00,CLR,,0.00,WeatherDisplay:10.37,2013-06-03 17:28:00,
2013-06-03 12:33:00,90.2,69.0,29.88,ESE,123,0.0,0.0,50,0.00,CLR,,0.00,WeatherDisplay:10.37,2013-06-03 17:33:00,
2013-06-03 12:38:00,89.5,68.4,29.88,SE,125,0.0,1.2,50,0.00,CLR,,0.00,WeatherDisplay:10.37,2013-06-03 17:38:00,
2013-06-03 12:43:00,90.3,67.9,29.88,WSW,252,1.0,3.5,48,0.00,CLR,,0.00,WeatherDisplay:10.37,2013-06-03 17:43:00,
2013-06-03 12:48:00,90.7,67.1,29.87,WSW,256,0.0,1.2,46,0.00,CLR,,0.00,WeatherDisplay:10.37,2013-06-03 17:48:00,
2013-06-03 12:53:00,90.6,67.0,29.87,NNE,29,0.1,1.2,46,0.00,CLR,,0.00,WeatherDisplay:10.37,2013-06-03 17:53:00,
2013-06-03 12:58:00,90.2,67.2,29.87,NE,55,0.0,1.2,47,0.00,CLR,,0.00,WeatherDisplay:10.37,2013-06-03 17:58:00,
2013-06-03 13:03:00,89.8,66.9,29.86,NE,55,0.0,2.3,47,0.00,CLR,,0.00,WeatherDisplay:10.37,2013-06-03 18:03:00,
2013-06-03 13:08:00,90.0,68.3,29.86,East,94,0.0,0.0,49,0.00,CLR,,0.00,WeatherDisplay:10.37,2013-06-03 18:08:00,
2013-06-03 13:13:00,90.4,67.4,29.86,ENE,57,0.0,0.0,47,0.00,CLR,,0.00,WeatherDisplay:10.37,2013-06-03 18:13:00,
2013-06-03 13:18:00,90.2,67.2,29.86,ENE,71,1.3,3.5,47,0.00,CLR,,0.00,WeatherDisplay:10.37,2013-06-03 18:18:00,
2013-06-03 13:23:00,89.9,68.2,29.86,NNE,20,0.2,1.2,49,0.00,CLR,,0.00,WeatherDisplay:10.37,2013-06-03 18:23:00,
2013-06-03 13:28:00,90.5,67.5,29.86,ENE,63,0.7,1.2,47,0.00,CLR,,0.00,WeatherDisplay:10.37,2013-06-03 18:28:00,
2013-06-03 13:33:00,91.7,68.6,29.86,ENE,64,0.0,0.0,47,0.00,CLR,,0.00,WeatherDisplay:10.37,2013-06-03 18:33:00,
2013-06-03 13:38:00,92.8,69.6,29.86,ENE,66,0.0,0.0,47,0.00,CLR,,0.00,WeatherDisplay:10.37,2013-06-03 18:38:00,
2013-06-03 13:43:00,93.5,67.6,29.86,NNW,333,0.1,1.2,43,0.00,CLR,,0.00,WeatherDisplay:10.37,2013-06-03 18:43:00,
2013-06-03 13:48:00,93.7,67.1,29.85,ENE,75,0.5,1.2,42,0.00,CLR,,0.00,WeatherDisplay:10.37,2013-06-03 18:48:00,
2013-06-03 13:53:00,93.8,67.2,29.85,ENE,64,0.1,1.2,42,0.00,CLR,,0.00,WeatherDisplay:10.37,2013-06-03 18:53:00,
2013-06-03 13:58:00,93.6,69.1,29.85,NE,36,0.3,1.2,45,0.00,CLR,,0.00,WeatherDisplay:10.37,2013-06-03 18:58:00,
2013-06-03 14:03:00,94.3,69.0,29.85,NE,36,0.0,0.0,44,0.00,CLR,,0.00,WeatherDisplay:10.37,2013-06-03 19:03:00,
2013-06-03 14:08:00,95.2,66.3,29.84,NE,53,0.0,1.2,39,0.00,CLR,,0.00,WeatherDisplay:10.37,2013-06-03 19:08:00,
2013-06-03 14:13:00,94.8,69.5,29.84,ENE,67,0.8,3.5,44,0.00,CLR,,0.00,WeatherDisplay:10.37,2013-06-03 19:13:00,
2013-06-03 14:18:00,94.5,67.9,29.84,North,11,0.0,1.2,42,0.00,CLR,,0.00,WeatherDisplay:10.37,2013-06-03 19:18:00,
2013-06-03 14:23:00,94.0,67.4,29.83,WNW,285,0.1,1.0,42,0.00,CLR,,0.00,WeatherDisplay:10.37,2013-06-03 19:23:00,
2013-06-03 14:28:00,94.6,69.3,29.83,WSW,244,0.0,0.0,44,0.00,CLR,,0.00,WeatherDisplay:10.37,2013-06-03 19:28:00,
2013-06-03 14:33:00,94.5,67.9,29.83,East,91,0.2,1.2,42,0.00,CLR,,0.00,WeatherDisplay:10.37,2013-06-03 19:33:00,
2013-06-03 14:38:00,94.6,67.3,29.82,ENE,68,1.5,2.3,41,0.00,CLR,,0.00,WeatherDisplay:10.37,2013-06-03 19:38:00,
2013-06-03 14:43:00,94.3,67.0,29.82,ENE,60,0.0,0.0,41,0.00,CLR,,0.00,WeatherDisplay:10.37,2013-06-03 19:43:00,
2013-06-03 14:48:00,94.3,64.8,29.82,NE,34,0.1,1.2,38,0.00,CLR,,0.00,WeatherDisplay:10.37,2013-06-03 19:48:00,
2013-06-03 14:53:00,94.2,66.2,29.81,WNW,289,0.0,0.0,40,0.00,CLR,,0.00,WeatherDisplay:10.37,2013-06-03 19:53:00,
2013-06-03 14:58:00,95.1,67.0,29.81,NNW,348,0.0,0.0,40,0.00,CLR,,0.00,WeatherDisplay:10.37,2013-06-03 19:58:00,
2013-06-03 15:03:00,95.3,65.7,29.81,East,93,0.5,3.5,38,0.00,CLR,,0.00,WeatherDisplay:10.37,2013-06-03 20:03:00,
2013-06-03 15:08:00,95.6,66.7,29.81,ENE,69,1.1,2.3,39,0.00,CLR,,0.00,WeatherDisplay:10.37,2013-06-03 20:08:00,
2013-06-03 15:13:00,94.6,66.5,29.80,East,94,0.0,0.0,40,0.00,CLR,,0.00,WeatherDisplay:10.37,2013-06-03 20:13:00,
2013-06-03 15:18:00,95.3,67.9,29.80,WSW,240,0.0,0.0,41,0.00,CLR,,0.00,WeatherDisplay:10.37,2013-06-03 20:18:00,
2013-06-03 15:23:00,95.4,67.2,29.80,NE,45,0.0,0.0,40,0.00,CLR,,0.00,WeatherDisplay:10.37,2013-06-03 20:23:00,
2013-06-03 15:28:00,95.4,66.5,29.80,NE,43,1.0,2.3,39,0.00,CLR,,0.00,WeatherDisplay:10.37,2013-06-03 20:28:00,
2013-06-03 15:33:00,95.0,66.9,29.80,ENE,67,0.8,1.2,40,0.00,CLR,,0.00,WeatherDisplay:10.37,2013-06-03 20:33:00,
2013-06-03 15:38:00,95.0,66.2,29.79,ENE,62,0.1,1.2,39,0.00,CLR,,0.00,WeatherDisplay:10.37,2013-06-03 20:38:00,
2013-06-03 15:43:00,96.2,66.5,29.79,SSW,213,1.9,3.5,38,0.00,CLR,,0.00,WeatherDisplay:10.37,2013-06-03 20:43:00,
2013-06-03 15:48:00,96.9,67.1,29.79,SW,227,0.5,1.2,38,0.00,CLR,,0.00,WeatherDisplay:10.37,2013-06-03 20:48:00,
2013-06-03 15:53:00,96.1,66.4,29.78,ENE,61,0.0,1.2,38,0.00,CLR,,0.00,WeatherDisplay:10.37,2013-06-03 20:53:00,
2013-06-03 15:58:00,96.6,66.8,29.78,ENE,60,0.1,1.2,38,0.00,CLR,,0.00,WeatherDisplay:10.37,2013-06-03 20:58:00,
2013-06-03 16:03:00,95.6,65.9,29.78,ENE,69,1.4,3.5,38,0.00,CLR,,0.00,WeatherDisplay:10.37,2013-06-03 21:03:00,
2013-06-03 16:08:00,95.0,66.2,29.78,NE,55,1.0,2.3,39,0.00,CLR,,0.00,WeatherDisplay:10.37,2013-06-03 21:08:00,
2013-06-03 16:13:00,94.6,66.5,29.78,NE,53,0.0,0.0,40,0.00,CLR,,0.00,WeatherDisplay:10.37,2013-06-03 21:13:00,
2013-06-03 16:18:00,96.0,68.5,29.78,NE,53,0.0,1.2,41,0.00,CLR,,0.00,WeatherDisplay:10.37,2013-06-03 21:18:00,
2013-06-03 16:23:00,96.5,67.5,29.77,NE,53,0.0,0.0,39,0.00,CLR,,0.00,WeatherDisplay:10.37,2013-06-03 21:23:00,
2013-06-03 16:28:00,96.8,68.5,29.77,NE,53,0.0,0.0,40,0.00,CLR,,0.00,WeatherDisplay:10.37,2013-06-03 21:28:00,
2013-06-03 16:33:00,96.6,68.3,29.77,ENE,76,0.0,0.0,40,0.00,CLR,,0.00,WeatherDisplay:10.37,2013-06-03 21:33:00,
2013-06-03 16:38:00,96.2,68.0,29.77,ENE,71,0.0,0.0,40,0.00,CLR,,0.00,WeatherDisplay:10.37,2013-06-03 21:38:00,
2013-06-03 16:43:00,96.5,68.2,29.77,ENE,70,0.3,2.3,40,0.00,CLR,,0.00,WeatherDisplay:10.37,2013-06-03 21:43:00,
2013-06-03 16:48:00,96.7,67.7,29.77,SW,236,0.0,0.0,39,0.00,CLR,,0.00,WeatherDisplay:10.37,2013-06-03 21:48:00,
2013-06-03 16:53:00,96.5,67.5,29.77,ENE,65,0.2,2.3,39,0.00,CLR,,0.00,WeatherDisplay:10.37,2013-06-03 21:53:00,
2013-06-03 16:58:00,95.8,68.3,29.77,ENE,66,0.0,1.2,41,0.00,CLR,,0.00,WeatherDisplay:10.37,2013-06-03 21:58:00,
2013-06-03 17:03:00,95.2,68.5,29.77,ENE,66,0.0,0.0,42,0.00,CLR,,0.00,WeatherDisplay:10.37,2013-06-03 22:03:00,
2013-06-03 17:08:00,95.1,69.1,29.77,ENE,57,0.0,0.0,43,0.00,CLR,,0.00,WeatherDisplay:10.37,2013-06-03 22:08:00,
2013-06-03 17:13:00,94.7,68.7,29.77,ENE,59,0.0,0.0,43,0.00,CLR,,0.00,WeatherDisplay:10.37,2013-06-03 22:13:00,
2013-06-03 17:18:00,95.1,67.7,29.76,ENE,59,0.0,1.2,41,0.00,CLR,,0.00,WeatherDisplay:10.37,2013-06-03 22:18:00,
2013-06-03 17:23:00,95.4,68.0,29.76,ENE,59,0.3,2.3,41,0.00,CLR,,0.00,WeatherDisplay:10.37,2013-06-03 22:23:00,
2013-06-03 17:28:00,95.2,67.8,29.76,ENE,59,0.0,0.0,41,0.00,CLR,,0.00,WeatherDisplay:10.37,2013-06-03 22:28:00,
2013-06-03 17:33:00,95.0,67.6,29.76,ENE,61,1.5,4.0,41,0.00,CLR,,0.00,WeatherDisplay:10.37,2013-06-03 22:33:00,
2013-06-03 17:38:00,94.6,69.3,29.76,NE,44,0.0,0.0,44,0.00,CLR,,0.00,WeatherDisplay:10.37,2013-06-03 22:38:00,
2013-06-03 17:43:00,94.7,68.0,29.76,NE,44,0.1,1.2,42,0.00,CLR,,0.00,WeatherDisplay:10.37,2013-06-03 22:43:00,
2013-06-03 17:48:00,94.5,67.2,29.76,NE,51,0.1,2.3,41,0.00,CLR,,0.00,WeatherDisplay:10.37,2013-06-03 22:48:00,
2013-06-03 17:53:00,93.9,65.9,29.76,ENE,59,0.1,1.2,40,0.00,CLR,,0.00,WeatherDisplay:10.37,2013-06-03 22:53:00,
2013-06-03 17:58:00,93.4,66.2,29.76,ENE,59,0.0,0.0,41,0.00,CLR,,0.00,WeatherDisplay:10.37,2013-06-03 22:58:00,
2013-06-03 18:03:00,93.0,66.5,29.76,ENE,59,0.4,1.2,42,0.00,CLR,,0.00,WeatherDisplay:10.37,2013-06-03 23:03:00,
2013-06-03 18:08:00,93.0,67.2,29.76,ENE,59,0.0,0.0,43,0.00,CLR,,0.00,WeatherDisplay:10.37,2013-06-03 23:08:00,
2013-06-03 18:13:00,92.9,66.4,29.76,ENE,59,0.0,0.0,42,0.00,CLR,,0.00,WeatherDisplay:10.37,2013-06-03 23:13:00,
2013-06-03 18:18:00,92.4,66.7,29.76,ENE,59,0.0,0.0,43,0.00,CLR,,0.00,WeatherDisplay:10.37,2013-06-03 23:18:00,
2013-06-03 18:23:00,92.1,66.4,29.76,ENE,59,0.0,0.0,43,0.00,CLR,,0.00,WeatherDisplay:10.37,2013-06-03 23:23:00,
2013-06-03 18:28:00,91.9,66.9,29.76,ENE,59,0.0,0.0,44,0.00,CLR,,0.00,WeatherDisplay:10.37,2013-06-03 23:28:00,
2013-06-03 18:33:00,91.8,66.8,29.75,ENE,59,0.0,0.0,44,0.00,CLR,,0.00,WeatherDisplay:10.37,2013-06-03 23:33:00,
2013-06-03 18:38:00,91.6,65.3,29.76,ENE,59,0.0,1.2,42,0.00,CLR,,0.00,WeatherDisplay:10.37,2013-06-03 23:38:00,
2013-06-03 18:43:00,91.1,66.8,29.76,ENE,59,0.0,1.2,45,0.00,CLR,,0.00,WeatherDisplay:10.37,2013-06-03 23:43:00,
2013-06-03 18:48:00,91.0,66.1,29.76,ENE,59,0.0,0.0,44,0.00,CLR,,0.00,WeatherDisplay:10.37,2013-06-03 23:48:00,
2013-06-03 18:53:00,90.8,65.9,29.76,ENE,59,0.0,0.0,44,0.00,CLR,,0.00,WeatherDisplay:10.37,2013-06-03 23:53:00,
2013-06-03 18:58:00,90.7,64.5,29.76,ENE,59,0.0,0.0,42,0.00,CLR,,0.00,WeatherDisplay:10.37,2013-06-03 23:58:00,
2013-06-03 19:03:00,90.5,64.3,29.76,ENE,59,0.0,0.0,42,0.00,CLR,,0.00,WeatherDisplay:10.37,2013-06-04 00:03:00,
2013-06-03 19:08:00,90.2,64.7,29.76,ENE,59,0.0,0.0,43,0.00,CLR,,0.00,WeatherDisplay:10.37,2013-06-04 00:08:00,
2013-06-03 19:13:00,89.9,64.4,29.76,ENE,59,0.0,0.0,43,0.00,CLR,,0.00,WeatherDisplay:10.37,2013-06-04 00:13:00,
2013-06-03 19:18:00,89.7,64.9,29.76,ENE,59,0.0,0.0,44,0.00,CLR,,0.00,WeatherDisplay:10.37,2013-06-04 00:18:00,
2013-06-03 19:23:00,89.5,65.4,29.76,ENE,59,0.0,0.0,45,0.00,CLR,,0.00,WeatherDisplay:10.37,2013-06-04 00:23:00,
2013-06-03 19:28:00,89.3,65.8,29.77,ENE,59,0.0,0.0,46,0.00,CLR,,0.00,WeatherDisplay:10.37,2013-06-04 00:28:00,
2013-06-03 19:33:00,89.1,65.6,29.76,ENE,59,0.0,0.0,46,0.00,CLR,,0.00,WeatherDisplay:10.37,2013-06-04 00:33:00,
2013-06-03 19:38:00,88.8,65.4,29.76,ENE,59,0.0,0.0,46,0.00,CLR,,0.00,WeatherDisplay:10.37,2013-06-04 00:38:00,
2013-06-03 19:43:00,88.7,67.1,29.76,ENE,59,0.0,0.0,49,0.00,CLR,,0.00,WeatherDisplay:10.37,2013-06-04 00:43:00,
2013-06-03 19:48:00,88.5,66.9,29.76,ENE,59,0.0,0.0,49,0.00,CLR,,0.00,WeatherDisplay:10.37,2013-06-04 00:48:00,
2013-06-03 19:53:00,88.3,67.9,29.77,ENE,59,0.0,0.0,51,0.00,CLR,,0.00,WeatherDisplay:10.37,2013-06-04 00:53:00,
2013-06-03 19:58:00,88.1,67.7,29.77,ENE,59,0.0,0.0,51,0.00,CLR,,0.00,WeatherDisplay:10.37,2013-06-04 00:58:00,
2013-06-03 20:03:00,87.9,68.1,29.77,ENE,59,0.0,0.0,52,0.00,CLR,,0.00,WeatherDisplay:10.37,2013-06-04 01:03:00,
2013-06-03 20:08:00,87.5,67.7,29.77,ENE,59,0.0,0.0,52,0.00,CLR,,0.00,WeatherDisplay:10.37,2013-06-04 01:08:00,
2013-06-03 20:13:00,87.1,67.3,29.77,ENE,59,0.0,0.0,52,0.00,CLR,,0.00,WeatherDisplay:10.37,2013-06-04 01:13:00,
2013-06-03 20:18:00,86.7,68.6,29.77,ENE,59,0.0,0.0,55,0.00,CLR,,0.00,WeatherDisplay:10.37,2013-06-04 01:18:00,
2013-06-03 20:23:00,86.4,68.3,29.77,ENE,59,0.0,0.0,55,0.00,CLR,,0.00,WeatherDisplay:10.37,2013-06-04 01:23:00,
2013-06-03 20:28:00,86.0,68.0,29.77,ENE,59,0.0,0.0,55,0.00,CLR,,0.00,WeatherDisplay:10.37,2013-06-04 01:28:00,
2013-06-03 20:33:00,85.6,67.6,29.77,ENE,59,0.0,0.0,55,0.00,CLR,,0.00,WeatherDisplay:10.37,2013-06-04 01:33:00,
2013-06-03 20:38:00,84.8,67.4,29.77,ENE,59,0.0,0.0,56,0.00,CLR,,0.00,WeatherDisplay:10.37,2013-06-04 01:38:00,
2013-06-03 20:43:00,84.1,66.7,29.78,ENE,59,0.0,0.0,56,0.00,CLR,,0.00,WeatherDisplay:10.37,2013-06-04 01:43:00,
2013-06-03 20:48:00,83.7,67.4,29.78,ENE,59,0.0,0.0,58,0.00,CLR,,0.00,WeatherDisplay:10.37,2013-06-04 01:48:00,
2013-06-03 20:53:00,83.2,67.4,29.78,ENE,59,0.0,0.0,59,0.00,CLR,,0.00,WeatherDisplay:10.37,2013-06-04 01:53:00,
2013-06-03 20:58:00,82.8,67.5,29.78,ENE,59,0.0,0.0,60,0.00,CLR,,0.00,WeatherDisplay:10.37,2013-06-04 01:58:00,
2013-06-03 21:03:00,82.3,67.0,29.78,ENE,59,0.0,0.0,60,0.00,CLR,,0.00,WeatherDisplay:10.37,2013-06-04 02:03:00,
2013-06-03 21:08:00,82.0,67.2,29.78,ENE,59,0.0,0.0,61,0.00,CLR,,0.00,WeatherDisplay:10.37,2013-06-04 02:08:00,
2013-06-03 21:13:00,81.5,66.8,29.78,ENE,59,0.0,0.0,61,0.00,CLR,,0.00,WeatherDisplay:10.37,2013-06-04 02:13:00,
2013-06-03 21:18:00,81.1,67.3,29.78,ENE,59,0.0,0.0,63,0.00,CLR,,0.00,WeatherDisplay:10.37,2013-06-04 02:18:00,
2013-06-03 21:23:00,80.6,67.3,29.78,ENE,59,0.0,0.0,64,0.00,CLR,,0.00,WeatherDisplay:10.37,2013-06-04 02:23:00,
2013-06-03 21:28:00,80.0,67.2,29.79,ENE,59,0.0,0.0,65,0.00,CLR,,0.00,WeatherDisplay:10.37,2013-06-04 02:28:00,
2013-06-03 21:33:00,79.6,67.2,29.79,ENE,59,0.0,0.0,66,0.00,CLR,,0.00,WeatherDisplay:10.37,2013-06-04 02:33:00,
2013-06-03 21:38:00,79.1,67.2,29.79,ENE,59,0.0,0.0,67,0.00,CLR,,0.00,WeatherDisplay:10.37,2013-06-04 02:38:00,
2013-06-03 21:43:00,78.7,67.2,29.79,ENE,59,0.0,0.0,68,0.00,CLR,,0.00,WeatherDisplay:10.37,2013-06-04 02:43:00,
2013-06-03 21:48:00,78.3,67.3,29.80,ENE,59,0.0,0.0,69,0.00,CLR,,0.00,WeatherDisplay:10.37,2013-06-04 02:48:00,
2013-06-03 21:53:00,77.8,67.2,29.80,ENE,59,0.0,0.0,70,0.00,CLR,,0.00,WeatherDisplay:10.37,2013-06-04 02:53:00,
2013-06-03 21:58:00,77.5,67.4,29.80,ENE,59,0.0,0.0,71,0.00,CLR,,0.00,WeatherDisplay:10.37,2013-06-04 02:58:00,
2013-06-03 22:03:00,77.1,67.4,29.80,ENE,59,0.0,0.0,72,0.00,CLR,,0.00,WeatherDisplay:10.37,2013-06-04 03:03:00,
2013-06-03 22:08:00,76.8,67.5,29.80,ENE,59,0.0,0.0,73,0.00,CLR,,0.00,WeatherDisplay:10.37,2013-06-04 03:08:00,
2013-06-03 22:13:00,76.5,67.2,29.80,ENE,59,0.0,0.0,73,0.00,CLR,,0.00,WeatherDisplay:10.37,2013-06-04 03:13:00,
2013-06-03 22:18:00,76.0,67.1,29.80,ENE,59,0.0,0.0,74,0.00,CLR,,0.00,WeatherDisplay:10.37,2013-06-04 03:18:00,
2013-06-03 22:23:00,75.7,67.2,29.80,ENE,59,0.0,0.0,75,0.00,CLR,,0.00,WeatherDisplay:10.37,2013-06-04 03:23:00,
2013-06-03 22:28:00,75.5,67.4,29.80,ENE,59,0.0,0.0,76,0.00,CLR,,0.00,WeatherDisplay:10.37,2013-06-04 03:28:00,
2013-06-03 22:33:00,75.2,67.5,29.81,ENE,59,0.0,0.0,77,0.00,CLR,,0.00,WeatherDisplay:10.37,2013-06-04 03:33:00,
2013-06-03 22:38:00,75.1,67.0,29.80,ENE,59,0.0,0.0,76,0.00,CLR,,0.00,WeatherDisplay:10.37,2013-06-04 03:38:00,
2013-06-03 22:43:00,74.9,66.8,29.81,ENE,59,0.0,0.0,76,0.00,CLR,,0.00,WeatherDisplay:10.37,2013-06-04 03:43:00,
2013-06-03 22:48:00,74.8,66.7,29.81,ENE,59,0.0,0.0,76,0.00,CLR,,0.00,WeatherDisplay:10.37,2013-06-04 03:48:00,
2013-06-03 22:53:00,74.6,67.3,29.81,ENE,59,0.0,0.0,78,0.00,CLR,,0.00,WeatherDisplay:10.37,2013-06-04 03:53:00,
2013-06-03 22:58:00,74.4,67.1,29.81,ENE,59,0.0,0.0,78,0.00,CLR,,0.00,WeatherDisplay:10.37,2013-06-04 03:58:00,
2013-06-03 23:01:00,74.3,66.6,29.81,ENE,59,0.0,0.0,77,0.00,CLR,,0.00,WeatherDisplay:10.37,2013-06-04 04:01:00,
2013-06-03 23:06:00,74.1,66.8,29.81,ENE,59,0.0,0.0,78,0.00,CLR,,0.00,WeatherDisplay:10.37,2013-06-04 04:06:00,
2013-06-03 23:11:00,73.9,66.6,29.81,ENE,59,0.0,0.0,78,0.00,CLR,,0.00,WeatherDisplay:10.37,2013-06-04 04:11:00,
2013-06-03 23:16:00,73.7,66.8,29.81,ENE,59,0.0,0.0,79,0.00,CLR,,0.00,WeatherDisplay:10.37,2013-06-04 04:16:00,
2013-06-03 23:21:00,73.5,66.6,29.81,ENE,59,0.0,0.0,79,0.00,CLR,,0.00,WeatherDisplay:10.37,2013-06-04 04:21:00,
2013-06-03 23:26:00,73.2,66.7,29.81,ENE,59,0.0,0.0,80,0.00,CLR,,0.00,WeatherDisplay:10.37,2013-06-04 04:26:00,
2013-06-03 23:31:00,73.0,66.5,29.81,ENE,59,0.0,0.0,80,0.00,CLR,,0.00,WeatherDisplay:10.37,2013-06-04 04:31:00,
2013-06-03 23:37:00,72.8,66.3,29.81,ENE,59,0.0,0.0,80,0.00,CLR,,0.00,WeatherDisplay:10.37,2013-06-04 04:37:00,
2013-06-03 23:42:00,72.5,66.3,29.81,ENE,59,0.0,0.0,81,0.00,CLR,,0.00,WeatherDisplay:10.37,2013-06-04 04:42:00,
2013-06-03 23:47:00,72.3,66.1,29.81,ENE,59,0.0,0.0,81,0.00,CLR,,0.00,WeatherDisplay:10.37,2013-06-04 04:47:00,
2013-06-03 23:52:00,72.0,66.2,29.81,ENE,59,0.0,0.0,82,0.00,CLR,,0.00,WeatherDisplay:10.37,2013-06-04 04:52:00,
2013-06-03 23:57:00,71.9,66.1,29.81,ENE,59,0.0,0.0,82,0.00,CLR,,0.00,WeatherDisplay:10.37,2013-06-04 04:57:00,